STARLINK-35676, 67345

Orbit data source: Space-Track

STARLINK-35676, 67345 is a payload satellite owned by SpaceX/Seattle (US) in LEO that was launched on Fri, 09 Jan 2026 UTC via an FALCON 9 launch vehicle from the Air Force Eastern Test Range (AFETR). Payload-class satellites include a variety of spacecraft equipped with specific instruments for various scientific and technological missions. These include communications satellites like Starlink; space stations such as the ISS; scientific satellites like the Hubble; Earth observation satellites from companies like Planet Labs, Umbra, and HawkEye 360; GPS; miniature CubeSats for education and research; and military/defense satellites.

Loading next visibility...
Identifier
67345, 2026-003M
Orbit
LEO
Country
Flag of USUS
Related business
Manufacturer
SpaceX/Seattle
Mission
Operational Commercial Communications
Bus & Motor
STARLINK V2MO, Unknown motor
Mass
575 kg wet, ~530 kg dry
Launch date (UTC)
2026-01-09 (5 months ago)
Launch vehicle
FALCON 9
Launch site
Air Force Eastern Test Range (AFETR)
Object type
Payload
Rocket body
Debris
Shape & HBR
Box + 2 Pan, 17.7 m
Radar Cross Section
36.964 m², Large (>1 m²)

Expand to show TLE details & history
Last TLE update: 1 day ago

TLE from 1 day ago
0 STARLINK-35676
1 67345U 26003M   26170.54563843  .00012166  00000-0  45068-3 0  9992
2 67345  43.0018  11.6498 0001094 265.8382  94.2344 15.27595051 24406
Epoch: 2026-06-19T13:05Z
TLE epoch observation values (Epoch: 2026-06-19T13:05:43.160Z)
Latitude
-0.00006°
Longitude
-92.55317°
Altitude
482.835 km
Speed
7.626 km/s
True Right ascension
00h 46m 35s
True Declination
0° 00' 00"
Sunlit
Object was in daylight at epoch
Visualization orbit readout
Latitude
Unknown
Longitude
Unknown
Altitude
Unknown
Speed
Unknown
Apparent Right ascension
Unknown
Apparent Declination
Unknown
Sunlit
N/A
Visualization observer readout
Local Sidereal Time
07:20:59
Azimuth
Unknown
Elevation
Unknown
Doppler factor
Unknown
Orbital elements
Apogee altitude
485.7 km
Perigee altitude
484.198 km
Semi-major axis
6,863.086 km
Eccentricity
0.00011
Inclination
43.0018°
RAAN
11.6498°
Arg. of periapsis
265.8382°
True anomaly
94.2469°
Mean anomaly
94.2344°
Eccentric anomaly
94.24065°
Mean motion
3.81737 °/min
Orbital period
94.31 mins
BSTAR
0.00045068
Loading maneuver chart data...
Computing Atmospheric mass density...
Loading historical data...
Loading historical data...
Loading historical data...
Loading historical data...
Loading historical data...
Loading historical data...
Loading historical data...

Documentation

Showing up to 5 results
|